[[{"header":{"parameterUnit":"m.s-1","parameterCategory":1,"la1":30.2991,"la2":30.254,"lo1":-89.0895,"lo2":-89.0444,"dy":0.0017,"dx":0.0017,"nx":28,"ny":28,"refTime":"2024-06-26T21:00:00:Z","depth":0,"parameterNumber":2,"parameterNumberName":"U-component_of_WINDS"},"data":[0,0,0,0,0,0,0,0,0,0,0,0,0,0,0,0,0,0,0,0,0,0,0,0,0,0,0,0,0,0,0,0,0,0,0,0,0,0,0,0,0,0,0,0,0,0,0,0,0,0,0,0,0,0,0,0,0,0,5.5458,5.5458,0,5.546,5.546,5.546,5.5359,5.5356,5.5354,5.5351,5.5357,5.536,5.5363,0,0,0,0,0,0,0,0,0,0,0,0,0,5.5371,5.5374,5.5458,5.5458,5.5458,5.546,5.546,5.546,5.5359,5.5356,5.5353,5.535,5.5357,5.536,5.5363,0,0,0,0,0,0,0,0,0,0,0,0,0,5.5395,5.5374,5.5458,5.5408,5.5404,5.546,5.546,5.546,5.536,5.5356,5.5352,5.5348,5.5356,5.5359,5.5363,5.5469,0,0,5.5376,5.5377,0,0,0,0,0,0,0,0,5.5394,5.5398,5.5416,5.5412,5.5407,5.5405,5.5432,5.5463,5.5361,5.5377,5.5351,5.5346,5.5377,5.5379,5.5388,5.5469,5.547,5.5376,5.5378,5.538,5.5381,0,0,0,0,0,0,0,5.5392,5.5398,5.5459,5.5416,5.5411,5.5387,5.5386,5.5437,5.54,5.5375,5.5368,5.5369,5.5374,5.5385,5.5388,5.547,5.5376,5.538,5.5382,5.5384,5.5637,5.5641,0,0,0,0,0,0,5.5397,5.5397,5.5459,5.5459,5.539,5.5392,5.539,5.541,5.5399,5.5393,5.5373,5.5364,5.538,5.5383,5.5388,5.5509,5.538,5.5384,5.5386,5.5633,5.5638,5.5642,0,0,0,0,0,0,5.5395,5.5403,5.5459,5.5426,5.5431,5.5398,5.542,5.5412,5.5422,5.5397,5.539,5.539,5.5377,5.5382,5.5449,5.5507,5.5386,5.5389,5.5627,5.5634,5.564,5.5753,0,0,0,0,0,0,5.5393,5.5403,5.5442,5.5428,5.5433,5.5519,5.5424,5.5415,5.5429,5.5419,5.5412,5.5407,5.5374,5.5444,5.5453,5.5511,5.5393,5.5622,5.563,5.5638,5.5744,5.5763,5.5779,0,0,0,0,0,5.5391,5.5475,5.5445,5.5453,5.5481,5.5523,5.5526,5.5486,5.5434,5.5473,5.5457,5.5407,5.5501,5.5451,5.5461,5.5521,5.5618,5.5628,5.5637,5.5736,5.5759,5.5778,0,0,0,0,0,0,5.5499,5.5472,5.5438,5.552,5.5525,5.5506,5.5553,5.5511,5.5531,5.5521,5.5471,5.547,5.5545,5.554,5.5486,5.5622,5.555,5.5562,5.5622,5.5644,5.5661,5.5659,5.5396,0,0,0,0,0,5.5532,5.5567,5.5543,5.5618,5.5622,5.5588,5.5605,5.5573,5.5576,5.5577,5.5566,5.5572,5.5602,5.5623,5.565,5.5744,5.574,5.579,5.5808,5.5822,5.5832,5.588,5.5901,5.5674,5.5674,5.5674,0,0,5.5602,5.5592,5.5617,5.5639,5.5639,5.5677,5.559,5.5634,5.5662,5.5584,5.5645,5.5638,5.5642,5.5722,5.5757,5.572,5.5895,5.5835,5.5846,5.5848,5.5892,5.5914,5.5933,5.5681,5.568,5.5679,0,0,5.5746,5.5743,5.5804,5.5805,5.5805,5.5782,5.5797,5.5785,5.5776,5.5837,5.5779,5.5813,5.5867,5.5871,5.588,5.6028,5.5982,5.6039,5.6128,5.6176,5.6193,5.6209,5.6259,5.6278,5.605,5.605,5.605,0,5.5833,5.5886,5.5841,5.5889,5.59,5.5831,5.5893,5.5897,5.5906,5.5916,5.5875,5.594,5.5938,5.6018,5.6054,5.6065,5.608,5.6037,5.6194,5.6209,5.6223,5.6271,5.629,5.6057,5.6056,5.6055,5.6055,0,5.5991,5.603,5.6079,5.6088,5.6105,5.616,5.6124,5.6148,5.6116,5.6098,5.6161,5.6156,5.6179,5.6197,5.6167,5.6273,5.6249,5.6203,5.6128,5.6252,5.6296,5.6314,5.6066,5.6064,5.6062,5.606,0,0,5.6202,5.6185,5.6204,5.6206,5.6202,5.6231,5.6284,5.6305,5.6325,5.6336,5.6377,5.6425,5.6381,5.6392,5.6362,5.6404,5.6519,5.6351,5.635,5.638,5.6633,5.6666,5.6688,5.649,5.6493,5.6496,5.6632,0,5.634,5.6425,5.6387,5.6477,5.6511,5.6447,5.6493,5.6495,5.6481,5.6509,5.6493,5.6526,5.6467,5.6473,5.6512,5.6496,5.6568,5.6487,5.6527,5.6529,5.6524,5.6711,5.6746,5.6874,5.6649,5.6652,5.6654,0,5.6511,5.6526,5.6619,5.6607,5.662,5.6662,5.6678,5.6706,5.6708,5.6695,5.6707,5.6667,5.6719,5.6648,5.6717,5.6662,5.6677,5.6673,5.6677,5.6676,5.6596,5.6713,5.6914,5.6932,5.6681,5.6679,5.6677,0,5.6652,5.6696,5.6756,5.6761,5.675,5.678,5.6777,5.6775,5.6791,5.6807,5.6816,5.6839,5.685,5.6869,5.6837,5.6788,5.691,5.6837,5.69,5.69,5.6925,5.6923,5.7129,5.6941,5.6941,5.694,5.694,0,5.6808,5.6867,5.6819,5.6856,5.692,5.6877,5.6942,5.6933,5.6932,5.6966,5.6915,5.6949,5.6905,5.6936,5.6912,5.6972,5.6979,5.6969,5.6961,5.6971,5.6972,5.6978,5.6967,5.6946,5.6944,5.6943,5.6943,0,5.6974,5.6945,5.7006,5.6991,5.6988,5.7036,5.7023,5.7057,5.7039,5.7084,5.7092,5.7064,5.7097,5.7068,5.71,5.7084,5.7163,5.7144,5.7161,5.7154,5.7217,5.7211,5.7431,5.7457,5.7256,5.7258,5.726,0,5.7074,5.7117,5.7106,5.7125,5.7124,5.7156,5.7171,5.7131,5.7149,5.7155,5.7189,5.7217,5.7236,5.7292,5.7276,5.73,5.7279,5.7355,5.7283,5.7291,5.7277,5.7273,5.7276,5.7369,5.7371,5.7373,5.7375,0,5.7253,5.7236,5.7259,5.7277,5.7296,5.7309,5.7318,5.7337,5.7296,5.7319,5.7351,5.7367,5.7399,5.7427,5.7446,5.7444,5.7403,5.7398,5.7413,5.7422,5.7429,5.7423,5.7197,5.7393,5.7391,5.7389,5.7389,5.7388,5.7387,5.7422,5.7419,5.7446,5.7448,5.7458,5.7488,5.7474,5.7499,5.7521,5.7497,5.7536,5.7538,5.7558,5.7562,5.7592,5.756,5.7583,5.7588,5.7593,5.7601,5.7428,5.7596,5.7595,5.7595,5.7595,5.7594,0,5.756,5.7555,5.7581,5.7594,5.7616,5.7575,5.7583,5.7604,5.7638,5.7642,5.7663,5.77,5.7727,5.7713,5.7737,5.7764,5.7745,5.7771,5.7767,5.7766,5.763,5.7612,5.7785,5.7785,5.7785,5.7785,5.7785,5.7785,5.7653,5.7709,5.7692,5.7749,5.7744,5.778,5.7788,5.7797,5.78,5.7842,5.7864,5.7855,5.7852,5.7875,5.7898,5.7894,5.7903,5.7936,5.7924,5.7795,5.7776,5.7758,5.7742,5.7939,5.7939,5.8058,5.8059,5.806]},{"header":{"parameterUnit":"m.s-1","parameterCategory":1,"la1":30.2991,"la2":30.254,"lo1":-89.0895,"lo2":-89.0444,"dy":0.0017,"dx":0.0017,"nx":28,"ny":28,"refTime":"2024-06-26T21:00:00:Z","depth":0,"parameterNumber":3,"parameterNumberName":"V-component_of_WINDS"},"data":[0,0,0,0,0,0,0,0,0,0,0,0,0,0,0,0,0,0,0,0,0,0,0,0,0,0,0,0,0,0,0,0,0,0,0,0,0,0,0,0,0,0,0,0,0,0,0,0,0,0,0,0,0,0,0,0,0,0,4.2113,4.2116,0,4.2369,4.2372,4.2375,4.244,4.2438,4.2437,4.2435,4.2694,4.2702,4.271,0,0,0,0,0,0,0,0,0,0,0,0,0,4.1678,4.1686,4.2113,4.2116,4.212,4.2368,4.2372,4.2375,4.244,4.2438,4.2436,4.2434,4.2691,4.2701,4.2711,0,0,0,0,0,0,0,0,0,0,0,0,0,4.1893,4.1688,4.2113,4.2182,4.2191,4.2368,4.2372,4.2376,4.244,4.2438,4.2436,4.2433,4.2688,4.27,4.2712,4.2837,0,0,4.275,4.2756,0,0,0,0,0,0,0,0,4.1881,4.1909,4.2169,4.2177,4.2188,4.237,4.2313,4.2531,4.2441,4.2346,4.2435,4.2432,4.2588,4.2608,4.2661,4.285,4.2861,4.2752,4.2759,4.2765,4.2768,0,0,0,0,0,0,0,4.1866,4.1899,4.2214,4.2172,4.2184,4.2199,4.2227,4.2355,4.2477,4.2354,4.2359,4.2389,4.2592,4.2649,4.2668,4.2864,4.2751,4.2762,4.277,4.2775,4.3167,4.317,0,0,0,0,0,0,4.184,4.1886,4.2206,4.2222,4.2025,4.2209,4.224,4.2314,4.2476,4.2498,4.239,4.2391,4.2629,4.2653,4.2677,4.2833,4.2764,4.2776,4.2783,4.3164,4.3167,4.3171,0,0,0,0,0,0,4.183,4.1868,4.2196,4.2056,4.2099,4.2219,4.2301,4.232,4.2377,4.2503,4.2525,4.2426,4.2628,4.266,4.2797,4.2843,4.2782,4.2793,4.3161,4.3165,4.3169,4.3147,0,0,0,0,0,0,4.1817,4.1864,4.1913,4.2056,4.2106,4.2312,4.2304,4.2327,4.2399,4.2402,4.2543,4.2564,4.2628,4.2778,4.2809,4.2859,4.2803,4.3157,4.3163,4.3168,4.3144,4.315,4.3155,0,0,0,0,0,4.1802,4.1897,4.1916,4.1954,4.217,4.2315,4.2343,4.2417,4.2402,4.2452,4.2534,4.2559,4.2833,4.2791,4.2828,4.2882,4.3154,4.3161,4.3167,4.3142,4.3149,4.3155,0,0,0,0,0,0,4.1755,4.1917,4.1939,4.2084,4.2185,4.2325,4.2391,4.2422,4.2529,4.2527,4.2613,4.2644,4.2775,4.2843,4.2793,4.3011,4.2994,4.3008,4.2962,4.297,4.2975,4.2955,4.2814,0,0,0,0,0,4.1762,4.1867,4.2002,4.2116,4.2166,4.227,4.2335,4.2383,4.2491,4.2534,4.2625,4.2728,4.2838,4.2908,4.3016,4.3155,4.3185,4.321,4.3215,4.3219,4.323,4.3307,4.3319,4.3192,4.3192,4.3192,0,0,4.1776,4.1878,4.1938,4.2109,4.2193,4.2299,4.2305,4.2417,4.2495,4.2551,4.2686,4.2757,4.2877,4.3015,4.3081,4.3076,4.3272,4.3227,4.323,4.3238,4.3314,4.3326,4.3337,4.3196,4.3195,4.3195,0,0,4.1856,4.1944,4.2048,4.2133,4.2261,4.2329,4.2354,4.249,4.2539,4.2677,4.272,4.2815,4.3002,4.3085,4.3152,4.3264,4.3291,4.3297,4.3324,4.3399,4.3408,4.3418,4.3456,4.3469,4.3307,4.3307,4.3307,0,4.1858,4.2019,4.2098,4.2207,4.228,4.2337,4.2442,4.252,4.2676,4.2724,4.2717,4.2952,4.3037,4.3195,4.3222,4.3275,4.3305,4.328,4.3401,4.3411,4.3421,4.3458,4.3472,4.3307,4.3307,4.3307,4.3307,0,4.2014,4.2125,4.2194,4.2343,4.2425,4.2531,4.2625,4.2697,4.2738,4.2807,4.2945,4.305,4.3179,4.3221,4.3262,4.3384,4.3377,4.3384,4.3368,4.3431,4.3467,4.3483,4.3306,4.3306,4.3306,4.3307,0,0,4.207,4.2262,4.2286,4.2354,4.25,4.2586,4.2695,4.2823,4.2882,4.2988,4.308,4.3237,4.3245,4.3321,4.3372,4.3437,4.3517,4.3437,4.3441,4.3446,4.3656,4.3648,4.3664,4.3536,4.3539,4.3542,4.3646,0,4.2166,4.2364,4.2437,4.2598,4.2701,4.2756,4.2851,4.295,4.3017,4.3113,4.3187,4.3296,4.3299,4.3345,4.3412,4.3492,4.356,4.3486,4.3621,4.3625,4.3587,4.3683,4.3676,4.3768,4.366,4.3663,4.3665,0,4.2305,4.2412,4.2584,4.2716,4.2762,4.2845,4.2968,4.306,4.3172,4.3216,4.3301,4.3348,4.3463,4.3441,4.3599,4.3548,4.3607,4.3655,4.366,4.3674,4.3647,4.3697,4.38,4.3813,4.3688,4.3686,4.3685,0,4.2326,4.2514,4.2641,4.2698,4.2855,4.2913,4.2981,4.3091,4.3163,4.327,4.3317,4.3435,4.3499,4.3589,4.3666,4.3644,4.3817,4.3802,4.3855,4.3853,4.3887,4.3884,4.3999,4.3929,4.3929,4.3928,4.3928,0,4.2424,4.2526,4.2652,4.273,4.2845,4.2929,4.3041,4.3113,4.321,4.3302,4.3357,4.3442,4.3539,4.3636,4.3697,4.3818,4.3847,4.3885,4.3899,4.3879,4.3874,4.3917,4.3912,4.3932,4.3931,4.3931,4.393,0,4.2466,4.2555,4.2696,4.2835,4.2872,4.295,4.3068,4.3145,4.3215,4.333,4.3362,4.3472,4.3588,4.3675,4.3826,4.3867,4.3995,4.4011,4.3957,4.3964,4.4012,4.4005,4.4157,4.4181,4.4096,4.4097,4.4097,0,4.2522,4.2602,4.2749,4.2815,4.2883,4.2988,4.3062,4.3148,4.3222,4.3356,4.3416,4.3537,4.3638,4.3822,4.3914,4.4029,4.4047,4.4093,4.4065,4.4041,4.4046,4.4039,4.4047,4.4096,4.4096,4.4097,4.4097,0,4.2611,4.2651,4.2756,4.2876,4.2962,4.3061,4.316,4.321,4.3313,4.3394,4.3514,4.3593,4.3747,4.3866,4.3991,4.406,4.4095,4.4105,4.4124,4.4102,4.4067,4.4085,4.3965,4.4101,4.4101,4.41,4.41,4.41,4.2661,4.2734,4.2849,4.2963,4.3047,4.3138,4.3217,4.3298,4.34,4.3533,4.3577,4.3701,4.3812,4.3983,4.4053,4.4151,4.415,4.4177,4.4183,4.4188,4.4186,4.4053,4.4174,4.4174,4.4174,4.4174,4.4174,0,4.2751,4.2828,4.2932,4.307,4.3159,4.3187,4.3298,4.3371,4.348,4.358,4.3679,4.3817,4.3932,4.4034,4.4154,4.4212,4.4231,4.424,4.4236,4.4251,4.418,4.4152,4.4223,4.4223,4.4223,4.4223,4.4223,4.4223,4.2808,4.2933,4.2987,4.3153,4.323,4.3352,4.3413,4.3497,4.3578,4.373,4.3826,4.3893,4.3994,4.4121,4.4228,4.4255,4.4295,4.43,4.433,4.4262,4.4256,4.425,4.4224,4.4309,4.4309,4.4393,4.4394,4.4394]}]]